Regional Weather Roundup
Issued by NWS Raleigh/Durham, NC

Home | Current Version | Previous Version | Text Only | Print | Product List | Glossary On
Versions: 1 2 3 4 5 6 7 8 9 10 11 12 13 14 15 16 17 18 19 20 21 22 23 24 25 26 27
000
ASUS42 KRAH 281510
RWRRAH
NORTH CAROLINA WEATHER ROUNDUP
NATIONAL WEATHER SERVICE RALEIGH NC
1100 AM EDT FRI JUL 28 2017

NOTE: "FAIR" INDICATES FEW OR NO CLOUDS BELOW 12,000 FEET WITH NO
SIGNIFICANT WEATHER AND/OR OBSTRUCTIONS TO VISIBILITY.

NCZ001-053-055-056-065-067-281600-
WESTERN NORTH CAROLINA

CITY           SKY/WX    TMP DP  RH WIND       PRES   REMARKS
ASHEVILLE      CLOUDY    73  71  93 E3        29.97F
JEFFERSON      CLOUDY    72  67  84 CALM      30.00R
HICKORY        MOSUNNY   77  73  87 CALM      29.89F FOG
RUTHERFORDTON  CLOUDY    77  74  91 CALM      29.91S
MOUNT AIRY     PTSUNNY   75  71  88 CALM      29.91F
BOONE          PTSUNNY   75  65  70 NW6       30.00F
$$

NCZ021-022-025-041-071-084-088-281600-
CENTRAL NORTH CAROLINA

CITY           SKY/WX    TMP DP  RH WIND       PRES   REMARKS
CHARLOTTE      CLOUDY    83  75  77 SW7       29.89S
GREENSBORO     CLOUDY    80  75  84 W8        29.87F
WINSTON-SALEM  MOSUNNY   79  74  84 SW5       29.89F
RALEIGH-DURHAM PTSUNNY   87  75  67 SW9       29.86F HX  96
FORT BRAGG     MOSUNNY   85  74  69 SW7       29.86F
FAYETTEVILLE   MOSUNNY   85  76  74 S7        29.86F
BURLINGTON     CLOUDY    85  75  72 SW5       29.86S
LAURINBURG     CLOUDY    84  77  79 SW6       29.88F
$$

NCZ011-015-027-028-043-044-047-080-103-281600-
NORTHEASTERN NORTH CAROLINA

CITY           SKY/WX    TMP DP  RH WIND       PRES   REMARKS
ROCKY MT-WILSO MOSUNNY   85  76  74 SW7       29.85F
GREENVILLE     MOSUNNY   82  73  74 SW9       29.88F
WASHINGTON     CLOUDY    83  74  73 SW9       29.87F
ELIZABETH CITY TSTM      75  75 100 CALM      29.90R VSB 3/4
MANTEO         DRIZZLE   74  73  96 NE7       29.90F
CAPE HATTERAS  CLOUDY    83  76  79 W7        29.90S
$$

NCZ078-087-090-091-093-098-101-281600-
SOUTHEASTERN NORTH CAROLINA

CITY           SKY/WX    TMP DP  RH WIND       PRES   REMARKS
LUMBERTON      MOSUNNY   85  75  72 SW9       29.87F
GOLDSBORO      MOSUNNY   86  77  75 SW10      29.85F HX  97
KINSTON        MOSUNNY   86  72  62 MISG      29.88F
KENANSVILLE    CLOUDY    82  72  69 SW12G17   29.88F
NEW BERN       CLOUDY    83  76  79 SW7       29.89S
CHERRY POINT   CLOUDY    83  73  72 SW12      29.89F
BEAUFORT       CLOUDY    83  77  82 W12       29.89S
JACKSONVILLE   CLOUDY    83  74  74 SW7       29.88F
WILMINGTON     CLOUDY    85  76  74 S10       29.88F
$$





USA.gov is the U.S. government's official web portal to all federal, state and local government web resources and services.